Погода в Колокарёве

Россия / Ярославская область     57°05′29″N   38°16′21″E
темп.,
°C
ветер,
м/с
пор.,
м/с
влажн.,
%
обл.,
%
осадки,
мм/ч
давл.,
гПа
погр.,
м
8 марта, пн
пн800:00−10з479080 0.7 993126
03:00−12зюз349475 0.7 99388
06:00−9юз2296100 0.7 99478
09:00−9ссз4695100 0.9 996298
12:00−8сз579390 0.0 1000499
15:00−7ссз688795 0.1 1002892
18:00−10ссз4992100 0.1 1006377
21:00−13ссз389691 0.2 1009172
9 марта, вт
вт900:00−16ссз369885 0.1 1010118
03:00−19ссз369986 0.1 101391
06:00−22ссз3410081 0.0 101466
09:00−20ссз359784 0.0 1016227
12:00−17ссз459192 0.0 1017396
15:00−15ссз469196 0.0 1018496
18:00−19ссз3695100 0.0 1019109
21:00−24с349667 0.0 102264
10 марта, ср
ср1000:00−25с339949 0.0 102442
03:00−27с339831 0.0 102628
06:00−28с33980 0.0 102724
09:00−25с24950 0.0 1028143
12:00−18ссз33800 0.0 1029411
15:00−15сз23770 0.0 1029497
18:00−20сз33920 0.0 102827
21:00−22сз23880 0.0 102920
11 марта, чт
чт1100:00−23зсз229010 0.0 103020
03:00−23зсз229616 0.0 103120
06:00−24зсз121006 0.0 103120
09:00−19з22954 0.0 1031107
12:00−13з228653 0.0 1031342
15:00−10зюз237969 0.0 1030565
18:00−13ю238889 0.0 102920
21:00−17ю349144 0.0 102936
12 марта, пт
пт1200:00−19ю34920 0.0 102868
03:00−20ююв48890 0.0 1027128
06:00−21ююв49850 0.0 1025167
09:00−16ююв611910 0.0 1023328
12:00−10ююв7128631 0.0 1020483
15:00−8ююв8148365 0.0 1017726
18:00−9ююв81589100 0.1 1014878
21:00−9ююв81689100 0.3 1012911